Weather History for Buckhannon, WV

Change the Weather History Date:

Saturday, January 19, 2013

  Actual Average (KEKN) Record (KEKN)
Temperature  
Mean Temperature 42 °F 29 °F  
Max Temperature 51 °F 39 °F 71 °F (1907)
Min Temperature 32 °F 19 °F -19 °F (1994)
Degree Days  
Heating Degree Days 24 36  
Month to date heating degree days 684  
Since 1 July heating degree days 2975  
Cooling Degree Days 0 0  
Month to date cooling degree days 0  
Year to date cooling degree days 0  
Moisture  
Dew Point 14 °F    
Average Humidity 31    
Maximum Humidity 39    
Minimum Humidity 22    
Precipitation  
Precipitation 0.00 in 0.11 in 1.69 in (1996)
Month to date precipitation 1.98  
Year to date precipitation 1.98  
Snow  
Snow 0.00 in - - ()
Month to date snowfall  
Since 1 September snowfall  
Snow Depth -    
Sea Level Pressure  
Sea Level Pressure 30.15 in    
Wind  
Wind Speed 10 mph (SSW)    
Max Wind Speed 21 mph    
Max Gust Speed 34 mph    
Visibility 10 miles    
Events      
T = Trace of Precipitation, MM = Missing Value Source: NWS Daily Summary

Daily Weather History Graph

Daily Weather History Graph

Search for Another Location

Airport:

Trip Planner

Search our weather history database for the weather conditions in past years. The results will help you decide how hot, cold, wet, or windy it might be!

Date:

Astronomy

Jan. 19, 2013 Rise Set
Actual Time 7:36 AM EST 5:27 PM EST
Civil Twilight 7:07 AM EST 5:56 PM EST
Nautical Twilight 6:34 AM EST 6:29 PM EST
Astronomical Twilight 6:03 AM EST 7:01 PM EST
Moon 11:52 AM EST (1/19) 1:10 AM EST (1/19)
Length of Visible Light 10h 49m
Length of Day
9h 51m
First Quarter, 57% of the Moon is Illuminated
Jan 19
First Quarter
Jan 26
Full
Feb 3
Last Quarter
Feb 10
New
Feb 17
First Quarter

Hourly Weather History & Observations

Time (EST) Temp. Windchill Dew Point Humidity Pressure Visibility Wind Dir Wind Speed Gust Speed Precip Events Conditions
12:15 AM 32.0 °F 26.4 °F 8.6 °F 38% 30.30 in 10.0 mi South 5.8 mph - N/A   Clear
12:35 AM 32.0 °F 25.6 °F 8.6 °F 38% 30.30 in 10.0 mi South 6.9 mph - N/A   Clear
12:55 AM 33.8 °F 28.6 °F 8.6 °F 35% 30.29 in 10.0 mi SSW 5.8 mph - N/A   Clear
1:15 AM 33.8 °F 29.6 °F 8.6 °F 35% 30.29 in 10.0 mi SSW 4.6 mph - N/A   Clear
1:35 AM 35.6 °F 31.7 °F 8.6 °F 33% 30.29 in 10.0 mi SSW 4.6 mph - N/A   Clear
1:55 AM 35.6 °F 31.7 °F 8.6 °F 33% 30.29 in 10.0 mi South 4.6 mph - N/A   Clear
2:15 AM 35.6 °F 32.8 °F 8.6 °F 33% 30.29 in 10.0 mi South 3.5 mph - N/A   Clear
2:35 AM 35.6 °F 32.8 °F 8.6 °F 33% 30.29 in 10.0 mi South 3.5 mph - N/A   Clear
2:55 AM 35.6 °F - 8.6 °F 33% 30.29 in 10.0 mi Calm Calm - N/A   Clear
3:15 AM 35.6 °F - 8.6 °F 33% 30.28 in 10.0 mi Calm Calm - N/A   Clear
3:35 AM 35.6 °F - 10.4 °F 35% 30.28 in 10.0 mi Calm Calm - N/A   Clear
3:55 AM 33.8 °F 28.6 °F 10.4 °F 38% 30.28 in 10.0 mi South 5.8 mph - N/A   Clear
4:15 AM 35.6 °F 31.7 °F 10.4 °F 35% 30.27 in 10.0 mi South 4.6 mph - N/A   Clear
4:35 AM 35.6 °F 31.7 °F 12.2 °F 38% 30.27 in 10.0 mi South 4.6 mph - N/A   Clear
4:55 AM 35.6 °F 30.7 °F 12.2 °F 38% 30.26 in 10.0 mi South 5.8 mph - N/A   Clear
5:15 AM 35.6 °F 31.7 °F 12.2 °F 38% 30.26 in 10.0 mi SSW 4.6 mph - N/A   Clear
5:35 AM 35.6 °F 29.9 °F 12.2 °F 38% 30.26 in 10.0 mi SSW 6.9 mph - N/A   Clear
5:55 AM 37.4 °F 31.4 °F 12.2 °F 36% 30.26 in 10.0 mi SSW 8.1 mph - N/A   Clear
6:15 AM 37.4 °F 29.8 °F 12.2 °F 36% 30.25 in 10.0 mi SSW 11.5 mph - N/A   Clear
6:35 AM 39.2 °F 32.5 °F 12.2 °F 33% 30.25 in 10.0 mi SSW 10.4 mph - N/A   Clear
7:35 AM 41.0 °F 34.3 °F 14.0 °F 33% 30.26 in 10.0 mi SSW 11.5 mph 25.3 mph N/A   Clear
7:55 AM 41.0 °F 33.1 °F 14.0 °F 33% 30.26 in 10.0 mi SSW 15.0 mph 21.9 mph N/A   Clear
8:15 AM 41.0 °F 33.5 °F 14.0 °F 33% 30.27 in 10.0 mi SW 13.8 mph 21.9 mph N/A   Clear
8:55 AM 42.8 °F 36.2 °F 15.8 °F 34% 30.28 in 10.0 mi SW 12.7 mph 25.3 mph N/A   Clear
9:15 AM 42.8 °F 35.4 °F 17.6 °F 36% 30.28 in 10.0 mi SW 15.0 mph 23.0 mph N/A   Clear
9:35 AM 42.8 °F 35.8 °F 17.6 °F 36% 30.28 in 10.0 mi SSW 13.8 mph 24.2 mph N/A   Clear
10:35 AM 44.6 °F 38.1 °F 21.2 °F 39% 30.28 in 10.0 mi SW 13.8 mph 24.2 mph N/A   Clear
10:55 AM 46.4 °F 39.0 °F 19.4 °F 34% 30.26 in 10.0 mi SW 19.6 mph 34.5 mph N/A   Clear
11:15 AM 46.4 °F 41.1 °F 21.2 °F 37% 30.25 in 10.0 mi SSW 11.5 mph 28.8 mph N/A   Clear
11:35 AM 46.4 °F 39.5 °F 19.4 °F 34% 30.23 in 10.0 mi SW 17.3 mph 24.2 mph N/A   Clear
11:55 AM 48.2 °F - 19.4 °F 32% 30.21 in 10.0 mi SW 16.1 mph 26.5 mph N/A   Clear
12:15 PM 48.2 °F - 19.4 °F 32% 30.20 in 10.0 mi SW 20.7 mph 26.5 mph N/A   Clear
12:35 PM 48.2 °F - 19.4 °F 32% 30.18 in 10.0 mi SW 16.1 mph 24.2 mph N/A   Clear
12:55 PM 48.2 °F - 17.6 °F 30% 30.16 in 10.0 mi SSW 18.4 mph 24.2 mph N/A   Clear
1:15 PM 50.0 °F - 19.4 °F 30% 30.14 in 10.0 mi SSW 18.4 mph 24.2 mph N/A   Clear
1:35 PM 51.8 °F - 17.6 °F 26% 30.13 in 10.0 mi SW 18.4 mph 28.8 mph N/A   Clear
1:55 PM 51.8 °F - 17.6 °F 26% 30.12 in 10.0 mi SSW 10.4 mph 25.3 mph N/A   Clear
2:55 PM 51.8 °F - 17.6 °F 26% 30.08 in 10.0 mi SW 20.7 mph 28.8 mph N/A   Clear
3:15 PM 51.8 °F - 14.0 °F 22% 30.07 in 10.0 mi SSW 20.7 mph 28.8 mph N/A   Clear
3:35 PM 51.8 °F - 14.0 °F 22% 30.06 in 10.0 mi SSW 17.3 mph 26.5 mph N/A   Clear
3:55 PM 51.8 °F - 14.0 °F 22% 30.06 in 10.0 mi SSW 18.4 mph 23.0 mph N/A   Clear
4:15 PM 51.8 °F - 14.0 °F 22% 30.05 in 10.0 mi SSW 16.1 mph 24.2 mph N/A   Clear
4:35 PM 51.8 °F - 14.0 °F 22% 30.04 in 10.0 mi SW 16.1 mph 19.6 mph N/A   Clear
4:55 PM 51.8 °F - 14.0 °F 22% 30.03 in 10.0 mi SSW 12.7 mph - N/A   Clear
5:15 PM 50.0 °F - 14.0 °F 24% 30.03 in 10.0 mi SW 10.4 mph 17.3 mph N/A   Clear
5:35 PM 48.2 °F - 14.0 °F 25% 30.02 in 10.0 mi SSW 9.2 mph - N/A   Clear
5:55 PM 46.4 °F 42.4 °F 14.0 °F 27% 30.01 in 10.0 mi SSW 8.1 mph - N/A   Clear
6:15 PM 46.4 °F 41.9 °F 17.6 °F 32% 30.01 in 10.0 mi SSW 9.2 mph 16.1 mph N/A   Clear
6:35 PM 46.4 °F 41.9 °F 15.8 °F 29% 30.01 in 10.0 mi SSW 9.2 mph - N/A   Clear
6:55 PM 46.4 °F 41.9 °F 17.6 °F 32% 30.01 in 10.0 mi SSW 9.2 mph - N/A   Clear
7:15 PM 46.4 °F 41.5 °F 17.6 °F 32% 30.01 in 10.0 mi SSW 10.4 mph - N/A   Clear
7:35 PM 46.4 °F 40.7 °F 15.8 °F 29% 30.00 in 10.0 mi SSW 12.7 mph 19.6 mph N/A   Clear
7:55 PM 46.4 °F 41.1 °F 15.8 °F 29% 30.00 in 10.0 mi SSW 11.5 mph - N/A   Clear
8:15 PM 46.4 °F 39.8 °F 15.8 °F 29% 30.00 in 10.0 mi SSW 16.1 mph - N/A   Clear
8:35 PM 46.4 °F 39.8 °F 14.0 °F 27% 29.99 in 10.0 mi SSW 16.1 mph 21.9 mph N/A   Clear
8:55 PM 46.4 °F 39.2 °F 14.0 °F 27% 29.98 in 10.0 mi SSW 18.4 mph 24.2 mph N/A   Clear
9:15 PM 46.4 °F 40.4 °F 14.0 °F 27% 29.97 in 10.0 mi SSW 13.8 mph 23.0 mph N/A   Clear
9:35 PM 46.4 °F 39.8 °F 14.0 °F 27% 29.97 in 10.0 mi SSW 16.1 mph 25.3 mph N/A   Clear
9:55 PM 46.4 °F 40.1 °F 14.0 °F 27% 29.97 in 10.0 mi SSW 15.0 mph 23.0 mph N/A   Clear
10:15 PM 46.4 °F 39.0 °F 14.0 °F 27% 29.96 in 10.0 mi SSW 19.6 mph 27.6 mph N/A   Clear
10:35 PM 46.4 °F 39.8 °F 14.0 °F 27% 29.96 in 10.0 mi SSW 16.1 mph 27.6 mph N/A   Clear
10:55 PM 46.4 °F 39.0 °F 14.0 °F 27% 29.95 in 10.0 mi SSW 19.6 mph 28.8 mph N/A   Clear
11:15 PM 46.4 °F 39.0 °F 14.0 °F 27% 29.95 in 10.0 mi SSW 19.6 mph 25.3 mph N/A   Clear
11:35 PM 46.4 °F 39.8 °F 14.0 °F 27% 29.95 in 10.0 mi SW 16.1 mph 23.0 mph N/A   Clear
11:55 PM 46.4 °F 39.5 °F 14.0 °F 27% 29.95 in 10.0 mi SW 17.3 mph 25.3 mph N/A   Clear